| time (UTC) | temp F | wind direction | speed MPH | gust MPH | rain 1hr in | rain 24hr in | rain mn in | humidity % | barometer mb |
| 20260505040057 | 53 | 125 | 0.0 | 2.0 | 0.00 | 0.03 | 0.03 | 90 | 1016.5 |
| 20260505034555 | 53 | 127 | 0.0 | 2.0 | 0.00 | 0.03 | 0.03 | 90 | 1016.2 |
| 20260505033055 | 53 | 127 | 0.0 | 2.0 | 0.00 | 0.03 | 0.03 | 90 | 1016.2 |
| 20260505031604 | 54 | 126 | 0.0 | 2.0 | 0.00 | 0.03 | 0.03 | 88 | 1016.0 |
| 20260505030055 | 54 | 126 | 0.0 | 3.0 | 0.00 | 0.03 | 0.03 | 88 | 1015.9 |
| 20260505024602 | 54 | 97 | 0.0 | 2.0 | 0.00 | 0.05 | 0.03 | 89 | 1015.8 |
| 20260505023054 | 54 | 180 | 0.0 | 2.0 | 0.00 | 0.05 | 0.03 | 88 | 1015.8 |
| 20260505021555 | 55 | 145 | 0.0 | 2.0 | 0.00 | 0.05 | 0.03 | 90 | 1015.8 |
| 20260505020052 | 55 | 145 | 0.0 | 2.0 | 0.00 | 0.05 | 0.03 | 89 | 1015.8 |
| 20260505014606 | 55 | 239 | 0.0 | 2.0 | 0.00 | 0.05 | 0.03 | 89 | 1015.8 |
| 20260505013052 | 55 | 253 | 0.0 | 2.0 | 0.00 | 0.05 | 0.03 | 88 | 1016.0 |
| 20260505011601 | 56 | 113 | 0.0 | 3.0 | 0.00 | 0.05 | 0.03 | 87 | 1016.0 |
| 20260505010050 | 56 | 202 | 0.0 | 3.0 | 0.00 | 0.05 | 0.03 | 87 | 1016.0 |
| 20260505004549 | 56 | 150 | 1.0 | 3.0 | 0.00 | 0.05 | 0.03 | 86 | 1016.1 |
| 20260505003051 | 56 | 347 | 1.0 | 4.0 | 0.00 | 0.05 | 0.03 | 87 | 1016.2 |
| 20260505001549 | 56 | 5 | 1.0 | 4.0 | 0.00 | 0.05 | 0.03 | 86 | 1016.0 |
| 20260504234550 | 56 | 110 | 0.0 | 2.0 | 0.00 | 0.05 | 0.03 | 87 | 1015.8 |
| 20260504233104 | 56 | 110 | 0.0 | 2.0 | 0.00 | 0.05 | 0.03 | 88 | 1015.8 |
| 20260504231548 | 56 | 281 | 0.0 | 2.0 | 0.00 | 0.05 | 0.03 | 88 | 1016.0 |
| 20260504230046 | 56 | 256 | 1.0 | 5.0 | 0.00 | 0.05 | 0.03 | 87 | 1015.8 |
| 20260504224552 | 56 | 286 | 0.0 | 2.0 | 0.00 | 0.05 | 0.03 | 88 | 1016.0 |
| 20260504223100 | 56 | 227 | 0.0 | 4.0 | 0.00 | 0.05 | 0.03 | 87 | 1016.2 |
| 20260504221544 | 57 | 175 | 0.0 | 4.0 | 0.00 | 0.05 | 0.03 | 87 | 1016.4 |
| 20260504220044 | 57 | 223 | 1.0 | 5.0 | 0.00 | 0.05 | 0.03 | 87 | 1016.5 |
| 20260504214543 | 57 | 234 | 0.0 | 2.0 | 0.00 | 0.05 | 0.03 | 87 | 1016.6 |
| 20260504213054 | 58 | 200 | 0.0 | 2.0 | 0.00 | 0.05 | 0.03 | 88 | 1016.5 |
| 20260504211542 | 57 | 281 | 0.0 | 3.0 | 0.00 | 0.05 | 0.03 | 87 | 1016.4 |
| 20260504210042 | 57 | 294 | 0.0 | 7.0 | 0.00 | 0.05 | 0.03 | 87 | 1016.5 |
| 20260504204546 | 58 | 219 | 0.0 | 4.0 | 0.00 | 0.05 | 0.03 | 87 | 1016.6 |
| 20260504203053 | 58 | 238 | 1.0 | 6.0 | 0.00 | 0.05 | 0.03 | 87 | 1016.6 |
| 20260504201539 | 58 | 248 | 0.0 | 3.0 | 0.00 | 0.05 | 0.03 | 86 | 1016.6 |
| 20260504200037 | 57 | 252 | 0.0 | 2.0 | 0.00 | 0.05 | 0.03 | 87 | 1016.6 |
| 20260504194535 | 57 | 242 | 0.0 | 2.0 | 0.00 | 0.05 | 0.03 | 89 | 1016.7 |
| 20260504193035 | 57 | 166 | 0.0 | 4.0 | 0.00 | 0.05 | 0.03 | 90 | 1016.9 |
| 20260504191534 | 57 | 160 | 0.0 | 3.0 | 0.00 | 0.05 | 0.03 | 90 | 1016.9 |
| 20260504190036 | 57 | 128 | 0.0 | 2.0 | 0.00 | 0.05 | 0.03 | 90 | 1017.0 |
| 20260504184533 | 57 | 257 | 0.0 | 4.0 | 0.00 | 0.05 | 0.03 | 89 | 1017.1 |
| 20260504183031 | 57 | 284 | 1.0 | 4.0 | 0.00 | 0.05 | 0.03 | 89 | 1016.9 |
| 20260504181536 | 57 | 167 | 0.0 | 3.0 | 0.00 | 0.05 | 0.03 | 89 | 1016.8 |
| 20260504180028 | 57 | 248 | 0.0 | 3.0 | 0.00 | 0.05 | 0.03 | 89 | 1016.7 |
| 20260504174527 | 57 | 209 | 0.0 | 2.0 | 0.00 | 0.05 | 0.03 | 92 | 1016.6 |
| 20260504173024 | 56 | 209 | 0.0 | 2.0 | 0.00 | 0.05 | 0.03 | 91 | 1016.5 |
| 20260504171522 | 55 | 101 | 0.0 | 2.0 | 0.00 | 0.05 | 0.03 | 93 | 1016.5 |
| 20260504081537 | 51 | 148 | 0.0 | 2.0 | 0.00 | 0.03 | 0.00 | 97 | 1015.9 |
| 20260504050021 | 52 | 84 | 0.0 | 0.0 | 0.00 | 0.03 | 0.03 | 96 | 1014.8 |
| 20260504044530 | 52 | 84 | 0.0 | 0.0 | 0.00 | 0.03 | 0.03 | 96 | 1014.9 |
| 20260504043023 | 52 | 84 | 0.0 | 0.0 | 0.00 | 0.03 | 0.03 | 96 | 1015.2 |
| 20260504041518 | 52 | 84 | 0.0 | 0.0 | 0.00 | 0.03 | 0.03 | 96 | 1015.2 |